| time (UTC) | temp F | wind direction | speed MPH | gust MPH | rain 1hr in | rain 24hr in | rain mn in | humidity % | barometer mb |
| 20260904160236 | 70 | 133 | 1.0 | 2.0 | 0.00 | 0.00 | 0.00 | 76 | 1017.3 |
| 20260904155735 | 70 | 141 | 1.0 | 1.0 | 0.00 | 0.00 | 0.00 | 77 | 1017.1 |
| 20260904155234 | 69 | 133 | 1.0 | 3.0 | 0.00 | 0.00 | 0.00 | 78 | 1017.3 |
| 20260904154732 | 69 | 79 | 3.0 | 3.0 | 0.00 | 0.00 | 0.00 | 78 | 1017.7 |
| 20260904154227 | 68 | 98 | 1.0 | 4.0 | 0.00 | 0.00 | 0.00 | 80 | 1017.4 |
| 20260904153723 | 69 | 93 | 6.0 | 7.0 | 0.00 | 0.00 | 0.00 | 79 | 1017.3 |
| 20260904153219 | 68 | 113 | 2.0 | 3.0 | 0.00 | 0.00 | 0.00 | 79 | 1017.6 |
| 20260904152716 | 68 | 142 | 1.0 | 6.0 | 0.00 | 0.00 | 0.00 | 81 | 1017.3 |
| 20260904152216 | 67 | 139 | 2.0 | 2.0 | 0.00 | 0.00 | 0.00 | 82 | 1017.3 |
| 20260904151710 | 67 | 104 | 3.0 | 4.0 | 0.00 | 0.00 | 0.00 | 82 | 1017.3 |
| 20260904151209 | 67 | 170 | 2.0 | 4.0 | 0.00 | 0.00 | 0.00 | 83 | 1017.1 |
| 20260904150705 | 66 | 114 | 2.0 | 4.0 | 0.00 | 0.00 | 0.00 | 84 | 1017.5 |
| 20260904150201 | 66 | 128 | 2.0 | 2.0 | 0.00 | 0.00 | 0.00 | 85 | 1017.1 |
| 20260904145659 | 65 | 124 | 1.0 | 2.0 | 0.00 | 0.00 | 0.00 | 86 | 1017.5 |
| 20260904145154 | 64 | 113 | 1.0 | 4.0 | 0.00 | 0.00 | 0.00 | 87 | 1017.3 |
| 20260904144650 | 64 | 91 | 3.0 | 4.0 | 0.00 | 0.00 | 0.00 | 86 | 1017.2 |
| 20260904144145 | 64 | 143 | 1.0 | 2.0 | 0.00 | 0.00 | 0.00 | 87 | 1017.1 |
| 20260904143636 | 64 | 95 | 1.0 | 2.0 | 0.00 | 0.00 | 0.00 | 88 | 1017.2 |
| 20260904143132 | 63 | 111 | 0.0 | 2.0 | 0.00 | 0.00 | 0.00 | 89 | 1017.2 |
| 20260904142629 | 62 | 95 | 0.0 | 2.0 | 0.00 | 0.00 | 0.00 | 90 | 1017.1 |
| 20260904142124 | 62 | 104 | 0.0 | 0.0 | 0.00 | 0.00 | 0.00 | 91 | 1017.1 |
| 20260904141618 | 61 | 143 | 0.0 | 0.0 | 0.00 | 0.00 | 0.00 | 93 | 1016.9 |
| 20260904141113 | 61 | 143 | 0.0 | 0.0 | 0.00 | 0.00 | 0.00 | 94 | 1016.8 |
| 20260904140610 | 60 | 143 | 0.0 | 0.0 | 0.00 | 0.00 | 0.00 | 94 | 1016.7 |
| 20260904140104 | 60 | 126 | 0.0 | 0.0 | 0.00 | 0.00 | 0.00 | 95 | 1016.7 |
| 20260904135603 | 60 | 156 | 0.0 | 0.0 | 0.00 | 0.00 | 0.00 | 95 | 1016.8 |
| 20260904135059 | 59 | 153 | 0.0 | 0.0 | 0.00 | 0.00 | 0.00 | 95 | 1016.8 |
| 20260904134554 | 59 | 153 | 0.0 | 1.0 | 0.00 | 0.00 | 0.00 | 95 | 1016.8 |
| 20260904134043 | 59 | 148 | 0.0 | 1.0 | 0.00 | 0.00 | 0.00 | 95 | 1016.6 |
| 20260904133542 | 59 | 130 | 1.0 | 2.0 | 0.00 | 0.00 | 0.00 | 95 | 1016.5 |
| 20260904133033 | 59 | 155 | 1.0 | 1.0 | 0.00 | 0.00 | 0.00 | 95 | 1016.5 |
| 20260904132527 | 59 | 170 | 0.0 | 0.0 | 0.00 | 0.00 | 0.00 | 95 | 1016.4 |
| 20260904132021 | 59 | 146 | 0.0 | 0.0 | 0.00 | 0.00 | 0.00 | 95 | 1016.6 |
| 20260904131516 | 59 | 123 | 0.0 | 2.0 | 0.00 | 0.00 | 0.00 | 95 | 1016.4 |
| 20260904131012 | 59 | 110 | 0.0 | 1.0 | 0.00 | 0.00 | 0.00 | 95 | 1016.6 |
| 20260904130511 | 59 | 133 | 0.0 | 1.0 | 0.00 | 0.00 | 0.00 | 95 | 1016.2 |
| 20260904130006 | 59 | 146 | 0.0 | 1.0 | 0.00 | 0.00 | 0.00 | 95 | 1016.3 |
| 20260904125502 | 59 | 145 | 0.0 | 1.0 | 0.00 | 0.00 | 0.00 | 95 | 1016.5 |
| 20260904124956 | 59 | 141 | 0.0 | 0.0 | 0.00 | 0.00 | 0.00 | 95 | 1016.1 |
| 20260904124452 | 59 | 159 | 1.0 | 2.0 | 0.00 | 0.00 | 0.00 | 95 | 1016.6 |
| 20260904123948 | 59 | 142 | 0.0 | 1.0 | 0.00 | 0.00 | 0.00 | 95 | 1016.6 |
| 20260904123442 | 59 | 152 | 0.0 | 0.0 | 0.00 | 0.00 | 0.00 | 94 | 1016.3 |
| 20260904122938 | 59 | 137 | 0.0 | 0.0 | 0.00 | 0.00 | 0.00 | 94 | 1016.2 |
| 20260904122437 | 59 | 143 | 0.0 | 0.0 | 0.00 | 0.00 | 0.00 | 94 | 1016.4 |
| 20260904121932 | 59 | 138 | 0.0 | 0.0 | 0.00 | 0.00 | 0.00 | 94 | 1016.2 |
| 20260904121428 | 59 | 148 | 0.0 | 0.0 | 0.00 | 0.00 | 0.00 | 94 | 1016.2 |
| 20260904120925 | 59 | 149 | 0.0 | 0.0 | 0.00 | 0.00 | 0.00 | 94 | 1016.1 |
| 20260904120420 | 59 | 149 | 0.0 | 0.0 | 0.00 | 0.00 | 0.00 | 94 | 1016.3 |
| 20260904115915 | 58 | 151 | 0.0 | 0.0 | 0.00 | 0.00 | 0.00 | 94 | 1016.3 |
| 20260904115410 | 58 | 153 | 0.0 | 0.0 | 0.00 | 0.00 | 0.00 | 94 | 1016.2 |
| 20260904114904 | 58 | 151 | 0.0 | 0.0 | 0.00 | 0.00 | 0.00 | 95 | 1016.1 |
| 20260904114359 | 58 | 132 | 0.0 | 0.0 | 0.00 | 0.00 | 0.00 | 95 | 1016.3 |
| 20260904113855 | 57 | 158 | 0.0 | 0.0 | 0.00 | 0.00 | 0.00 | 95 | 1016.3 |
| 20260904113354 | 57 | 143 | 0.0 | 0.0 | 0.00 | 0.00 | 0.00 | 95 | 1016.2 |
| 20260904112854 | 57 | 143 | 0.0 | 0.0 | 0.00 | 0.00 | 0.00 | 95 | 1016.1 |
| 20260904112349 | 57 | 143 | 0.0 | 0.0 | 0.00 | 0.00 | 0.00 | 95 | 1016.1 |
| 20260904111845 | 57 | 143 | 0.0 | 0.0 | 0.00 | 0.00 | 0.00 | 95 | 1016.2 |
| 20260904111341 | 57 | 143 | 0.0 | 0.0 | 0.00 | 0.00 | 0.00 | 95 | 1016.1 |
| 20260904110837 | 57 | 149 | 0.0 | 0.0 | 0.00 | 0.00 | 0.00 | 96 | 1016.2 |
| 20260904110335 | 57 | 149 | 0.0 | 0.0 | 0.00 | 0.00 | 0.00 | 95 | 1016.3 |
| 20260904105830 | 57 | 151 | 0.0 | 0.0 | 0.00 | 0.00 | 0.00 | 95 | 1016.1 |
| 20260904105325 | 57 | 151 | 0.0 | 0.0 | 0.00 | 0.00 | 0.00 | 95 | 1016.2 |
| 20260904104820 | 57 | 151 | 0.0 | 0.0 | 0.00 | 0.00 | 0.00 | 95 | 1016.3 |
| 20260904104315 | 57 | 151 | 0.0 | 0.0 | 0.00 | 0.00 | 0.00 | 95 | 1016.2 |
| 20260904103812 | 57 | 151 | 0.0 | 0.0 | 0.00 | 0.00 | 0.00 | 95 | 1016.2 |
| 20260904103312 | 57 | 151 | 0.0 | 0.0 | 0.00 | 0.00 | 0.00 | 95 | 1015.8 |
| 20260904102808 | 57 | 151 | 0.0 | 0.0 | 0.00 | 0.00 | 0.00 | 95 | 1016.1 |
| 20260904102306 | 57 | 151 | 0.0 | 0.0 | 0.00 | 0.00 | 0.00 | 95 | 1016.2 |
| 20260904101759 | 57 | 147 | 0.0 | 0.0 | 0.00 | 0.00 | 0.00 | 95 | 1016.1 |
| 20260904101255 | 57 | 147 | 0.0 | 0.0 | 0.00 | 0.00 | 0.00 | 95 | 1015.7 |
| 20260904100751 | 57 | 147 | 0.0 | 0.0 | 0.00 | 0.00 | 0.00 | 95 | 1016.0 |
| 20260904100246 | 57 | 147 | 0.0 | 0.0 | 0.00 | 0.00 | 0.00 | 95 | 1016.1 |
| 20260904095746 | 57 | 134 | 0.0 | 0.0 | 0.00 | 0.00 | 0.00 | 95 | 1015.9 |
| 20260904095241 | 57 | 152 | 0.0 | 0.0 | 0.00 | 0.00 | 0.00 | 94 | 1016.1 |
| 20260904094736 | 58 | 152 | 0.0 | 0.0 | 0.00 | 0.00 | 0.00 | 94 | 1016.2 |
| 20260904094231 | 58 | 152 | 0.0 | 0.0 | 0.00 | 0.00 | 0.00 | 94 | 1016.1 |
| 20260904093728 | 58 | 151 | 0.0 | 0.0 | 0.00 | 0.00 | 0.00 | 94 | 1016.1 |
| 20260904093227 | 58 | 151 | 0.0 | 0.0 | 0.00 | 0.00 | 0.00 | 94 | 1016.0 |
| 20260904092723 | 58 | 151 | 0.0 | 0.0 | 0.00 | 0.00 | 0.00 | 94 | 1016.1 |
| 20260904092219 | 58 | 151 | 0.0 | 0.0 | 0.00 | 0.00 | 0.00 | 93 | 1016.1 |
| 20260904091714 | 58 | 151 | 0.0 | 0.0 | 0.00 | 0.00 | 0.00 | 93 | 1016.1 |
| 20260904091210 | 58 | 151 | 0.0 | 0.0 | 0.00 | 0.00 | 0.00 | 93 | 1016.1 |
| 20260904090705 | 58 | 151 | 0.0 | 0.0 | 0.00 | 0.00 | 0.00 | 93 | 1016.0 |
| 20260904090201 | 59 | 151 | 0.0 | 0.0 | 0.00 | 0.00 | 0.00 | 93 | 1016.0 |
| 20260904085655 | 59 | 151 | 0.0 | 0.0 | 0.00 | 0.00 | 0.00 | 92 | 1015.9 |
| 20260904085150 | 59 | 151 | 0.0 | 0.0 | 0.00 | 0.00 | 0.00 | 92 | 1016.0 |
| 20260904084645 | 59 | 151 | 0.0 | 0.0 | 0.00 | 0.00 | 0.00 | 92 | 1016.2 |
| 20260904084142 | 59 | 151 | 0.0 | 0.0 | 0.00 | 0.00 | 0.00 | 92 | 1016.1 |
| 20260904083638 | 59 | 151 | 0.0 | 0.0 | 0.00 | 0.00 | 0.00 | 92 | 1016.3 |
| 20260904083133 | 59 | 151 | 0.0 | 0.0 | 0.00 | 0.00 | 0.00 | 92 | 1016.2 |
| 20260904082628 | 59 | 151 | 0.0 | 0.0 | 0.00 | 0.00 | 0.00 | 92 | 1016.1 |
| 20260904082124 | 60 | 151 | 0.0 | 0.0 | 0.00 | 0.00 | 0.00 | 92 | 1016.2 |
| 20260904081619 | 60 | 151 | 0.0 | 0.0 | 0.00 | 0.00 | 0.00 | 92 | 1016.5 |
| 20260904081114 | 60 | 151 | 0.0 | 0.0 | 0.00 | 0.00 | 0.00 | 92 | 1016.2 |
| 20260904080610 | 60 | 151 | 0.0 | 0.0 | 0.00 | 0.00 | 0.00 | 92 | 1016.6 |
| 20260904080106 | 60 | 151 | 0.0 | 0.0 | 0.00 | 0.00 | 0.00 | 92 | 1016.4 |
| 20260904075601 | 60 | 151 | 0.0 | 0.0 | 0.00 | 0.00 | 0.00 | 92 | 1016.3 |
| 20260904075055 | 60 | 152 | 0.0 | 0.0 | 0.00 | 0.00 | 0.00 | 92 | 1016.5 |
| 20260904074555 | 60 | 151 | 0.0 | 0.0 | 0.00 | 0.00 | 0.00 | 93 | 1016.4 |
| 20260904074050 | 60 | 149 | 0.0 | 0.0 | 0.00 | 0.00 | 0.00 | 92 | 1016.5 |
| 20260904073544 | 60 | 171 | 0.0 | 0.0 | 0.00 | 0.00 | 0.00 | 92 | 1016.7 |
| 20260904073041 | 60 | 171 | 0.0 | 0.0 | 0.00 | 0.00 | 0.00 | 92 | 1016.4 |
| 20260904072536 | 60 | 171 | 0.0 | 0.0 | 0.00 | 0.00 | 0.00 | 92 | 1016.5 |
| 20260904072031 | 60 | 166 | 0.0 | 0.0 | 0.00 | 0.00 | 0.00 | 92 | 1016.5 |
| 20260904071526 | 60 | 166 | 0.0 | 0.0 | 0.00 | 0.00 | 0.00 | 93 | 1016.4 |
| 20260904071021 | 60 | 157 | 0.0 | 0.0 | 0.00 | 0.00 | 0.00 | 92 | 1016.5 |
| 20260904070521 | 60 | 157 | 0.0 | 0.0 | 0.00 | 0.00 | 0.00 | 92 | 1016.3 |
| 20260904070016 | 60 | 157 | 0.0 | 0.0 | 0.00 | 0.00 | 0.00 | 93 | 1016.1 |
| 20260904065511 | 60 | 157 | 0.0 | 0.0 | 0.00 | 0.00 | 0.00 | 93 | 1016.3 |
| 20260904065007 | 60 | 157 | 0.0 | 0.0 | 0.00 | 0.00 | 0.00 | 93 | 1016.3 |
| 20260904064503 | 60 | 157 | 0.0 | 0.0 | 0.00 | 0.00 | 0.00 | 93 | 1016.3 |
| 20260904064002 | 60 | 157 | 0.0 | 0.0 | 0.00 | 0.00 | 0.00 | 93 | 1016.3 |
| 20260904063459 | 60 | 157 | 0.0 | 0.0 | 0.00 | 0.00 | 0.00 | 93 | 1016.2 |
| 20260904062954 | 60 | 157 | 0.0 | 0.0 | 0.00 | 0.00 | 0.00 | 93 | 1016.2 |
| 20260904062450 | 60 | 155 | 0.0 | 0.0 | 0.00 | 0.00 | 0.00 | 93 | 1016.2 |
| 20260904061945 | 61 | 155 | 0.0 | 0.0 | 0.00 | 0.00 | 0.00 | 93 | 1016.0 |
| 20260904061442 | 60 | 155 | 0.0 | 0.0 | 0.00 | 0.00 | 0.00 | 92 | 1016.2 |
| 20260904060937 | 60 | 152 | 0.0 | 0.0 | 0.00 | 0.00 | 0.00 | 92 | 1016.2 |
| 20260904060433 | 61 | 155 | 0.0 | 0.0 | 0.00 | 0.00 | 0.00 | 92 | 1016.4 |
| 20260904055929 | 61 | 155 | 0.0 | 0.0 | 0.00 | 0.00 | 0.00 | 92 | 1016.2 |
| 20260904055424 | 61 | 153 | 0.0 | 0.0 | 0.00 | 0.00 | 0.00 | 92 | 1016.3 |
| 20260904054920 | 61 | 155 | 0.0 | 0.0 | 0.00 | 0.00 | 0.00 | 92 | 1016.1 |
| 20260904054415 | 61 | 153 | 0.0 | 0.0 | 0.00 | 0.00 | 0.00 | 92 | 1016.4 |
| 20260904053911 | 62 | 153 | 0.0 | 0.0 | 0.00 | 0.00 | 0.00 | 92 | 1016.3 |
| 20260904053410 | 62 | 153 | 0.0 | 0.0 | 0.00 | 0.00 | 0.00 | 92 | 1016.2 |
| 20260904052906 | 62 | 153 | 0.0 | 0.0 | 0.00 | 0.00 | 0.00 | 91 | 1016.5 |
| 20260904052402 | 62 | 153 | 0.0 | 0.0 | 0.00 | 0.00 | 0.00 | 91 | 1016.4 |
| 20260904051859 | 62 | 153 | 0.0 | 0.0 | 0.00 | 0.00 | 0.00 | 91 | 1016.5 |
| 20260904051354 | 62 | 153 | 0.0 | 0.0 | 0.00 | 0.00 | 0.00 | 91 | 1016.4 |
| 20260904050848 | 62 | 153 | 0.0 | 0.0 | 0.00 | 0.00 | 0.00 | 90 | 1016.8 |
| 20260904050345 | 62 | 153 | 0.0 | 0.0 | 0.00 | 0.00 | 0.00 | 90 | 1016.7 |
| 20260904045839 | 62 | 152 | 0.0 | 0.0 | 0.00 | 0.00 | 0.00 | 89 | 1016.7 |
| 20260904045334 | 62 | 153 | 0.0 | 0.0 | 0.00 | 0.00 | 0.00 | 88 | 1016.6 |
| 20260904044829 | 63 | 152 | 0.0 | 0.0 | 0.00 | 0.00 | 0.00 | 87 | 1016.3 |
| 20260904044325 | 63 | 163 | 0.0 | 0.0 | 0.00 | 0.00 | 0.00 | 87 | 1016.7 |
| 20260904043821 | 63 | 162 | 0.0 | 0.0 | 0.00 | 0.00 | 0.00 | 88 | 1016.5 |
| 20260904043317 | 63 | 168 | 0.0 | 0.0 | 0.00 | 0.00 | 0.00 | 89 | 1016.6 |
| 20260904042812 | 63 | 167 | 0.0 | 0.0 | 0.00 | 0.00 | 0.00 | 88 | 1016.5 |
| 20260904042309 | 63 | 176 | 0.0 | 0.0 | 0.00 | 0.00 | 0.00 | 88 | 1016.4 |
| 20260904041808 | 63 | 170 | 0.0 | 0.0 | 0.00 | 0.00 | 0.00 | 87 | 1016.6 |
| 20260904041305 | 63 | 169 | 0.0 | 0.0 | 0.00 | 0.00 | 0.00 | 87 | 1016.5 |
| 20260904040800 | 64 | 183 | 1.0 | 1.0 | 0.00 | 0.00 | 0.00 | 87 | 1016.3 |
| 20260904040256 | 63 | 187 | 0.0 | 0.0 | 0.00 | 0.00 | 0.00 | 86 | 1016.4 |
| 20260904035751 | 64 | 157 | 0.0 | 0.0 | 0.00 | 0.00 | 0.00 | 86 | 1016.2 |
| 20260904035247 | 64 | 166 | 0.0 | 0.0 | 0.00 | 0.00 | 0.00 | 85 | 1016.3 |
| 20260904034746 | 64 | 162 | 0.0 | 0.0 | 0.00 | 0.00 | 0.00 | 85 | 1016.5 |
| 20260904034241 | 64 | 158 | 0.0 | 0.0 | 0.00 | 0.00 | 0.00 | 84 | 1016.2 |
| 20260904033736 | 64 | 167 | 0.0 | 0.0 | 0.00 | 0.00 | 0.00 | 84 | 1016.3 |
| 20260904033233 | 64 | 162 | 0.0 | 0.0 | 0.00 | 0.00 | 0.00 | 84 | 1016.2 |
| 20260904032729 | 64 | 162 | 0.0 | 0.0 | 0.00 | 0.00 | 0.00 | 83 | 1016.0 |
| 20260904032228 | 65 | 158 | 0.0 | 0.0 | 0.00 | 0.00 | 0.00 | 83 | 1016.2 |
| 20260904031723 | 65 | 162 | 0.0 | 0.0 | 0.00 | 0.00 | 0.00 | 82 | 1016.3 |
| 20260904031218 | 65 | 160 | 0.0 | 0.0 | 0.00 | 0.00 | 0.00 | 82 | 1016.0 |
| 20260904030714 | 65 | 161 | 0.0 | 1.0 | 0.00 | 0.00 | 0.00 | 82 | 1015.9 |
| 20260904030209 | 65 | 170 | 0.0 | 0.0 | 0.00 | 0.00 | 0.00 | 81 | 1016.1 |
| 20260904025706 | 66 | 155 | 0.0 | 1.0 | 0.00 | 0.00 | 0.00 | 81 | 1016.0 |
| 20260904025200 | 66 | 131 | 0.0 | 0.0 | 0.00 | 0.00 | 0.00 | 80 | 1015.9 |
| 20260904024656 | 66 | 128 | 0.0 | 1.0 | 0.00 | 0.00 | 0.00 | 80 | 1015.9 |
| 20260904024151 | 66 | 178 | 0.0 | 1.0 | 0.00 | 0.00 | 0.00 | 79 | 1015.9 |
| 20260904023647 | 66 | 144 | 0.0 | 1.0 | 0.00 | 0.00 | 0.00 | 78 | 1015.7 |
| 20260904023143 | 67 | 190 | 0.0 | 2.0 | 0.00 | 0.00 | 0.00 | 78 | 1015.8 |
| 20260904022642 | 67 | 208 | 2.0 | 4.0 | 0.00 | 0.00 | 0.00 | 77 | 1015.8 |
| 20260904022139 | 67 | 178 | 0.0 | 1.0 | 0.00 | 0.00 | 0.00 | 77 | 1015.9 |
| 20260904021635 | 68 | 249 | 2.0 | 2.0 | 0.00 | 0.00 | 0.00 | 76 | 1015.9 |
| 20260904021125 | 68 | 178 | 1.0 | 6.0 | 0.00 | 0.00 | 0.00 | 75 | 1015.8 |
| 20260904020621 | 68 | 103 | 1.0 | 2.0 | 0.00 | 0.00 | 0.00 | 75 | 1015.7 |
| 20260904020115 | 69 | 245 | 2.0 | 2.0 | 0.00 | 0.00 | 0.00 | 74 | 1015.8 |
| 20260904015615 | 69 | 141 | 0.0 | 2.0 | 0.00 | 0.00 | 0.00 | 73 | 1015.7 |
| 20260904015113 | 69 | 53 | 0.0 | 2.0 | 0.00 | 0.00 | 0.00 | 73 | 1015.5 |
| 20260904014607 | 70 | 92 | 1.0 | 3.0 | 0.00 | 0.00 | 0.00 | 72 | 1015.6 |
| 20260904014103 | 70 | 203 | 1.0 | 1.0 | 0.00 | 0.00 | 0.00 | 72 | 1015.8 |
| 20260904013600 | 70 | 155 | 0.0 | 1.0 | 0.00 | 0.00 | 0.00 | 72 | 1015.8 |
| 20260904013056 | 71 | 148 | 0.0 | 3.0 | 0.00 | 0.00 | 0.00 | 71 | 1015.8 |
| 20260904012556 | 71 | 178 | 2.0 | 3.0 | 0.00 | 0.00 | 0.00 | 70 | 1015.7 |
| 20260904012056 | 72 | 231 | 1.0 | 2.0 | 0.00 | 0.00 | 0.00 | 69 | 1015.9 |
| 20260904011550 | 72 | 102 | 1.0 | 4.0 | 0.00 | 0.00 | 0.00 | 69 | 1015.9 |
| 20260904011045 | 73 | 8 | 1.0 | 3.0 | 0.00 | 0.00 | 0.00 | 68 | 1015.9 |
| 20260904010541 | 73 | 259 | 3.0 | 6.0 | 0.00 | 0.00 | 0.00 | 69 | 1016.0 |
| 20260904010037 | 73 | 257 | 4.0 | 6.0 | 0.00 | 0.00 | 0.00 | 68 | 1015.9 |
| 20260904005532 | 73 | 133 | 0.0 | 4.0 | 0.00 | 0.00 | 0.00 | 68 | 1015.8 |
| 20260904005027 | 74 | 291 | 4.0 | 4.0 | 0.00 | 0.00 | 0.00 | 67 | 1015.8 |
| 20260904004523 | 74 | 235 | 3.0 | 3.0 | 0.00 | 0.00 | 0.00 | 67 | 1016.0 |
| 20260904004022 | 74 | 262 | 4.0 | 4.0 | 0.00 | 0.00 | 0.00 | 67 | 1016.1 |
| 20260904003519 | 74 | 38 | 2.0 | 7.0 | 0.00 | 0.00 | 0.00 | 67 | 1015.9 |
| 20260904003014 | 74 | 168 | 2.0 | 7.0 | 0.00 | 0.00 | 0.00 | 67 | 1015.7 |
| 20260904002510 | 75 | 265 | 1.0 | 3.0 | 0.00 | 0.00 | 0.00 | 67 | 1015.8 |
| 20260904002009 | 75 | 171 | 3.0 | 6.0 | 0.00 | 0.00 | 0.00 | 66 | 1015.9 |
| 20260904001505 | 75 | 250 | 3.0 | 4.0 | 0.00 | 0.00 | 0.00 | 67 | 1016.0 |
| 20260904000959 | 75 | 265 | 3.0 | 6.0 | 0.00 | 0.00 | 0.00 | 67 | 1015.8 |
| 20260904000458 | 75 | 201 | 3.0 | 6.0 | 0.00 | 0.00 | 0.00 | 67 | 1015.8 |
| 20260903235954 | 75 | 202 | 1.0 | 6.0 | 0.00 | 0.00 | 0.00 | 66 | 1015.7 |
| 20260903235449 | 76 | 297 | 3.0 | 7.0 | 0.00 | 0.00 | 0.00 | 66 | 1016.0 |
| 20260903234944 | 77 | 260 | 4.0 | 6.0 | 0.00 | 0.00 | 0.00 | 65 | 1016.0 |
| 20260903234440 | 76 | 291 | 2.0 | 10.0 | 0.00 | 0.00 | 0.00 | 65 | 1016.1 |
| 20260903233936 | 76 | 269 | 3.0 | 6.0 | 0.00 | 0.00 | 0.00 | 65 | 1015.9 |
| 20260903233431 | 76 | 242 | 4.0 | 6.0 | 0.00 | 0.00 | 0.00 | 65 | 1015.9 |
| 20260903232926 | 77 | 307 | 2.0 | 6.0 | 0.00 | 0.00 | 0.00 | 65 | 1016.1 |
| 20260903232420 | 77 | 171 | 2.0 | 4.0 | 0.00 | 0.00 | 0.00 | 64 | 1016.0 |
| 20260903231915 | 77 | 287 | 2.0 | 6.0 | 0.00 | 0.00 | 0.00 | 64 | 1016.1 |
| 20260903231410 | 77 | 305 | 4.0 | 6.0 | 0.00 | 0.00 | 0.00 | 64 | 1016.2 |
| 20260903230905 | 78 | 159 | 5.0 | 9.0 | 0.00 | 0.00 | 0.00 | 64 | 1016.1 |
| 20260903230400 | 78 | 125 | 3.0 | 6.0 | 0.00 | 0.00 | 0.00 | 64 | 1016.1 |
| 20260903225856 | 78 | 266 | 2.0 | 4.0 | 0.00 | 0.00 | 0.00 | 63 | 1016.1 |
| 20260903225352 | 79 | 13 | 3.0 | 9.0 | 0.00 | 0.00 | 0.00 | 63 | 1016.2 |
| 20260903224848 | 79 | 46 | 2.0 | 3.0 | 0.00 | 0.00 | 0.00 | 63 | 1016.1 |
| 20260903224344 | 80 | 97 | 3.0 | 8.0 | 0.00 | 0.00 | 0.00 | 62 | 1016.4 |
| 20260903223839 | 79 | 249 | 1.0 | 2.0 | 0.00 | 0.00 | 0.00 | 62 | 1016.3 |
| 20260903223337 | 80 | 189 | 3.0 | 4.0 | 0.00 | 0.00 | 0.00 | 63 | 1016.2 |
| 20260903222832 | 79 | 14 | 2.0 | 3.0 | 0.00 | 0.00 | 0.00 | 63 | 1016.4 |
| 20260903222327 | 79 | 138 | 1.0 | 3.0 | 0.00 | 0.00 | 0.00 | 63 | 1016.1 |
| 20260903221821 | 80 | 224 | 2.0 | 3.0 | 0.00 | 0.00 | 0.00 | 61 | 1016.5 |
| 20260903221320 | 80 | 269 | 4.0 | 8.0 | 0.00 | 0.00 | 0.00 | 61 | 1016.2 |
| 20260903220818 | 79 | 158 | 4.0 | 6.0 | 0.00 | 0.00 | 0.00 | 63 | 1016.4 |
| 20260903220312 | 79 | 276 | 6.0 | 10.0 | 0.00 | 0.00 | 0.00 | 63 | 1016.6 |
| 20260903215810 | 80 | 187 | 2.0 | 4.0 | 0.00 | 0.00 | 0.00 | 62 | 1016.6 |
| 20260903215308 | 80 | 218 | 4.0 | 6.0 | 0.00 | 0.00 | 0.00 | 62 | 1016.5 |
| 20260903214805 | 80 | 264 | 6.0 | 9.0 | 0.00 | 0.00 | 0.00 | 62 | 1016.7 |
| 20260903214302 | 79 | 51 | 2.0 | 4.0 | 0.00 | 0.00 | 0.00 | 63 | 1016.5 |
| 20260903213756 | 80 | 112 | 2.0 | 8.0 | 0.00 | 0.00 | 0.00 | 63 | 1016.5 |
| 20260903213251 | 80 | 354 | 2.0 | 6.0 | 0.00 | 0.00 | 0.00 | 63 | 1016.4 |
| 20260903212742 | 80 | 156 | 1.0 | 4.0 | 0.00 | 0.00 | 0.00 | 64 | 1016.5 |
| 20260903212238 | 79 | 285 | 4.0 | 7.0 | 0.00 | 0.00 | 0.00 | 64 | 1016.6 |
| 20260903211731 | 79 | 191 | 2.0 | 4.0 | 0.00 | 0.00 | 0.00 | 64 | 1016.6 |
| 20260903211228 | 78 | 13 | 1.0 | 6.0 | 0.00 | 0.00 | 0.00 | 66 | 1016.8 |
| 20260903210724 | 79 | 15 | 4.0 | 7.0 | 0.00 | 0.00 | 0.00 | 64 | 1016.9 |
| 20260903210219 | 79 | 53 | 1.0 | 4.0 | 0.00 | 0.00 | 0.00 | 65 | 1016.9 |
| 20260903205719 | 79 | 265 | 5.0 | 8.0 | 0.00 | 0.00 | 0.00 | 64 | 1016.7 |
| 20260903205218 | 79 | 127 | 2.0 | 7.0 | 0.00 | 0.00 | 0.00 | 64 | 1017.0 |
| 20260903204713 | 79 | 242 | 3.0 | 8.0 | 0.00 | 0.00 | 0.00 | 65 | 1016.7 |
| 20260903204210 | 79 | 98 | 0.0 | 4.0 | 0.00 | 0.00 | 0.00 | 66 | 1016.8 |
| 20260903203705 | 78 | 223 | 4.0 | 7.0 | 0.00 | 0.00 | 0.00 | 65 | 1016.7 |
| 20260903203201 | 79 | 244 | 4.0 | 8.0 | 0.00 | 0.00 | 0.00 | 64 | 1017.0 |
| 20260903202654 | 80 | 260 | 4.0 | 8.0 | 0.00 | 0.00 | 0.00 | 63 | 1016.9 |
| 20260903202150 | 80 | 223 | 2.0 | 4.0 | 0.00 | 0.00 | 0.00 | 63 | 1016.8 |
| 20260903201644 | 80 | 167 | 2.0 | 6.0 | 0.00 | 0.00 | 0.00 | 64 | 1016.8 |
| 20260903201143 | 79 | 63 | 1.0 | 9.0 | 0.00 | 0.00 | 0.00 | 64 | 1016.8 |
| 20260903200638 | 80 | 201 | 3.0 | 4.0 | 0.00 | 0.00 | 0.00 | 63 | 1016.9 |
| 20260903200133 | 80 | 258 | 4.0 | 6.0 | 0.00 | 0.00 | 0.00 | 63 | 1016.9 |
| 20260903195629 | 79 | 183 | 1.0 | 6.0 | 0.00 | 0.00 | 0.00 | 63 | 1017.0 |
| 20260903195125 | 80 | 91 | 1.0 | 6.0 | 0.00 | 0.00 | 0.00 | 64 | 1017.2 |
| 20260903194620 | 79 | 243 | 3.0 | 9.0 | 0.00 | 0.00 | 0.00 | 63 | 1017.1 |
| 20260903194120 | 80 | 54 | 1.0 | 7.0 | 0.00 | 0.00 | 0.00 | 63 | 1017.2 |
| 20260903193616 | 80 | 197 | 1.0 | 2.0 | 0.00 | 0.00 | 0.00 | 62 | 1017.1 |
| 20260903193111 | 80 | 160 | 2.0 | 3.0 | 0.00 | 0.00 | 0.00 | 62 | 1017.1 |
| 20260903192609 | 80 | 203 | 4.0 | 6.0 | 0.00 | 0.00 | 0.00 | 62 | 1017.4 |
| 20260903192108 | 79 | 244 | 7.0 | 8.0 | 0.00 | 0.00 | 0.00 | 63 | 1017.1 |
| 20260903191605 | 80 | 289 | 4.0 | 6.0 | 0.00 | 0.00 | 0.00 | 61 | 1017.3 |
| 20260903191059 | 79 | 284 | 4.0 | 7.0 | 0.00 | 0.00 | 0.00 | 61 | 1017.3 |
| 20260903190559 | 79 | 108 | 2.0 | 4.0 | 0.00 | 0.00 | 0.00 | 62 | 1017.3 |
| 20260903190059 | 81 | 308 | 6.0 | 7.0 | 0.00 | 0.00 | 0.00 | 58 | 1017.5 |
| 20260903185554 | 80 | 155 | 0.0 | 1.0 | 0.00 | 0.00 | 0.00 | 60 | 1017.5 |
| 20260903185049 | 80 | 102 | 0.0 | 2.0 | 0.00 | 0.00 | 0.00 | 60 | 1017.9 |
| 20260903184545 | 79 | 104 | 0.0 | 3.0 | 0.00 | 0.00 | 0.00 | 59 | 1017.6 |
| 20260903184040 | 80 | 56 | 0.0 | 3.0 | 0.00 | 0.00 | 0.00 | 58 | 1017.7 |
| 20260903183539 | 80 | 30 | 2.0 | 2.0 | 0.00 | 0.00 | 0.00 | 58 | 1017.7 |
| 20260903183035 | 80 | 107 | 1.0 | 2.0 | 0.00 | 0.00 | 0.00 | 57 | 1017.8 |
| 20260903182533 | 80 | 165 | 1.0 | 4.0 | 0.00 | 0.00 | 0.00 | 58 | 1017.8 |
| 20260903182030 | 79 | 59 | 1.0 | 2.0 | 0.00 | 0.00 | 0.00 | 59 | 1017.8 |
| 20260903181528 | 79 | 138 | 1.0 | 3.0 | 0.00 | 0.00 | 0.00 | 59 | 1017.8 |
| 20260903181023 | 79 | 121 | 1.0 | 4.0 | 0.00 | 0.00 | 0.00 | 59 | 1017.7 |
| 20260903180519 | 78 | 97 | 2.0 | 3.0 | 0.00 | 0.00 | 0.00 | 59 | 1017.7 |
| 20260903180018 | 78 | 67 | 0.0 | 2.0 | 0.00 | 0.00 | 0.00 | 60 | 1017.9 |
| 20260903175517 | 78 | 186 | 3.0 | 4.0 | 0.00 | 0.00 | 0.00 | 59 | 1017.9 |
| 20260903175017 | 78 | 151 | 0.0 | 1.0 | 0.00 | 0.00 | 0.00 | 62 | 1017.9 |
| 20260903174511 | 78 | 186 | 1.0 | 2.0 | 0.00 | 0.00 | 0.00 | 60 | 1017.9 |
| 20260903174006 | 77 | 158 | 2.0 | 3.0 | 0.00 | 0.00 | 0.00 | 62 | 1018.1 |
| 20260903173501 | 76 | 102 | 1.0 | 3.0 | 0.00 | 0.00 | 0.00 | 64 | 1017.9 |
| 20260903172957 | 77 | 132 | 1.0 | 2.0 | 0.00 | 0.00 | 0.00 | 63 | 1017.9 |
| 20260903172457 | 76 | 137 | 0.0 | 1.0 | 0.00 | 0.00 | 0.00 | 64 | 1018.1 |
| 20260903171952 | 75 | 71 | 0.0 | 1.0 | 0.00 | 0.00 | 0.00 | 66 | 1018.2 |
| 20260903171447 | 75 | 90 | 2.0 | 3.0 | 0.00 | 0.00 | 0.00 | 66 | 1018.0 |
| 20260903170942 | 75 | 109 | 0.0 | 3.0 | 0.00 | 0.00 | 0.00 | 67 | 1018.1 |
| 20260903170437 | 75 | 89 | 2.0 | 2.0 | 0.00 | 0.00 | 0.00 | 67 | 1018.0 |
| 20260903165936 | 74 | 116 | 1.0 | 2.0 | 0.00 | 0.00 | 0.00 | 67 | 1018.2 |
| 20260903165430 | 73 | 133 | 1.0 | 2.0 | 0.00 | 0.00 | 0.00 | 68 | 1018.1 |
| 20260903164924 | 73 | 89 | 0.0 | 4.0 | 0.00 | 0.00 | 0.00 | 68 | 1018.0 |
| 20260903164419 | 74 | 118 | 1.0 | 4.0 | 0.00 | 0.00 | 0.00 | 70 | 1017.9 |
| 20260903163919 | 73 | 57 | 2.0 | 2.0 | 0.00 | 0.00 | 0.00 | 70 | 1018.0 |
| 20260903163415 | 72 | 90 | 1.0 | 3.0 | 0.00 | 0.00 | 0.00 | 72 | 1018.0 |
| 20260903162911 | 72 | 80 | 4.0 | 7.0 | 0.00 | 0.00 | 0.00 | 72 | 1018.1 |
| 20260903162408 | 72 | 86 | 2.0 | 6.0 | 0.00 | 0.00 | 0.00 | 72 | 1018.1 |
| 20260903161903 | 71 | 141 | 2.0 | 6.0 | 0.00 | 0.00 | 0.00 | 74 | 1018.1 |
| 20260903161358 | 71 | 146 | 2.0 | 6.0 | 0.00 | 0.00 | 0.00 | 74 | 1018.0 |
| 20260903160854 | 71 | 147 | 0.0 | 3.0 | 0.00 | 0.00 | 0.00 | 76 | 1018.0 |